Regional Weather Roundup
Issued by NWS

Home | Current Version | Previous Version | Text Only | Print | Product List | Glossary On
Versions: 1 2 3 4 5 6 7 8 9 10 11 12 13 14 15 16 17 18 19 20 21 22 23 24 25 26 27 28 29 30 31 32 33 34 35 36 37 38 39 40 41 42 43 44 45 46 47 48 49 50
000
ASUS45 KPSR 061110
RWRAZ

ARIZONA REGIONAL HOURLY WEATHER ROUNDUP
NATIONAL WEATHER SERVICE PHOENIX AZ
400 AM MST WED MAY 06 2015

NOTE: FAIR INDICATES FEW OR NO CLOUDS BELOW 12,000 FEET WITH NO
SIGNIFICANT WEATHER AND/OR OBSTRUCTIONS TO VISIBILITY.

AZZ001>003-036-061200-
NORTHWEST ARIZONA

CITY           SKY/WX    TMP DP  RH WIND       PRES   REMARKS
BULLHEAD CITY  CLEAR     68  39  34 S3        29.74S
KINGMAN        PTCLDY    53  37  54 SE7       29.85S
$$

AZZ004>008-015-016-018-061200-
NORTH CENTRAL ARIZONA

CITY           SKY/WX    TMP DP  RH WIND       PRES   REMARKS
GRAND CANYON   MOCLDY    41  39  93 SW5       29.99F
WILLIAMS       CLOUDY    45  36  70 VRB5      30.06S
PRESCOTT       PTCLDY    47  38  71 S6        29.94F
FLAGSTAFF      PTCLDY    35  34  96 CALM      30.01F
PAYSON         MOCLDY    50  46  87 CALM      29.98F
PAGE           PTCLDY    55  47  74 CALM      29.86F
$$

AZZ009>014-017-061200-
NORTHEAST ARIZONA

CITY           SKY/WX    TMP DP  RH WIND       PRES   REMARKS
WINSLOW        CLOUDY    51  43  74 CALM      29.94S
SAINT JOHNS    CLOUDY    52  41  66 W8        29.97S
WINDOW ROCK    CLOUDY    47  42  83 SW8       29.98S
SHOW LOW       PTCLDY    45  39  81 S10       30.01S
$$

AZZ023-061200-
GREATER PHOENIX AREA

CITY           SKY/WX    TMP DP  RH WIND       PRES   REMARKS
PHOENIX        PTCLDY    72  47  40 VRB5      29.80S
LUKE AFB       MOCLDY    67  48  50 CALM      29.79F
DEER VALLEY    MOCLDY    68  45  43 N5        29.81F
SCOTTSDALE     MOCLDY    71  45  39 N3        29.83F
MESA-GATEWAY   PTCLDY    63  50  63 SE3       29.85R
$$

AZZ027-028-061200-
SOUTHWEST MARICOPA COUNTY AND PINAL COUNTY

CITY           SKY/WX    TMP DP  RH WIND       PRES   REMARKS
CASA GRANDE    PTCLDY    64  43  45 CALM      29.82S
GILA BEND      FAIR      65  42  41 S2        29.78F
$$

AZZ503-504-507>509-061200-
SOUTHEAST ARIZONA

CITY           SKY/WX    TMP DP  RH WIND       PRES   REMARKS
TUCSON         CLEAR     63  46  54 SE6       29.91S
DAVIS-MONTHAN  PTCLDY    62  48  60 SE6       29.89S
NOGALES        CLEAR     50  40  68 E6        29.93F
SIERRA VISTA   CLEAR     53  36  52 S5        29.99R
DOUGLAS        CLEAR     51  33  50 SE3       29.96S
SAFFORD        MOCLDY    55  45  68 NE5       29.89F
$$

AZZ020-021-025-026-031-061200-
SOUTHWEST ARIZONA

CITY           SKY/WX    TMP DP  RH WIND       PRES   REMARKS
YUMA           PTCLDY    70  56  61 SW3       29.76F
$$

CAZ031-033-041-043-047-048-061-061200-
SOUTHERN CALIFORNIA

CITY           SKY/WX    TMP DP  RH WIND       PRES   REMARKS
DOWNTOWN L.A.  CLOUDY    58  52  80 CALM      29.91F
L.A. AIRPORT   MOCLDY    59  51  75 CALM      29.91F
SAN DIEGO      CLOUDY    61  49  64 S5        29.93F
BURBANK        CLOUDY    58  47  66 SE3       29.91F
ONTARIO        CLOUDY    56  47  71 W6        29.91F
RIVERSIDE      CLOUDY    56  48  74 CALM      29.92F
PALM SPRINGS   CLOUDY    65  43  44 NW16G23   29.76S
EL CENTRO NAS  MOCLDY    66  42  41 W20       29.77S
IMPERIAL       MOCLDY    61  45  55 W9        29.74F
BLYTHE         PTCLDY    69  41  36 S9        29.75S
NEEDLES        PTCLDY    74  31  20 SW13      29.74S
$$

NVZ020-UTZ003-061200-
SOUTHERN NEVADA-UTAH

CITY           SKY/WX    TMP DP  RH WIND       PRES   REMARKS
LAS VEGAS      PTCLDY    68  39  34 S7        29.72S
SALT LAKE CITY CLOUDY    54  49  83 SE9       29.82S
$$

NMZ009-TXZ055-061200-
NEW MEXICO-WEST TEXAS

CITY           SKY/WX    TMP DP  RH WIND       PRES   REMARKS
ALBUQUERQUE    MOCLDY    53  43  68 S7        29.94S
EL PASO        CLEAR     61  39  44 SW9       29.93S
$$


........................KEY........................
SKY/WX - SKY CONDITION/WEATHER
TMP    - TEMPERATURE IN FAHRENHEIT
DP     - DEW POINT IN FAHRENHEIT
RH     - RELATIVE HUMIDITY IN PERCENT
WIND   - DIRECTION AND SPEED IN MILES PER HOUR (MPH)
VRB    - VARIABLE WIND DIRECTION
PRES   - MEAN SEA LEVEL PRESSURE IN INCHES OF MERCURY
         F - FALLING PRESSURE   R - RISING PRESSURE
         S - STEADY PRESSURE
VSB    - VISIBILITY IN MILES
HX     - HEAT INDEX IN FAHRENHEIT
WCI    - WIND CHILL INDEX IN FAHRENHEIT
TC     - TEMPERATURE IN CELSIUS WHICH IS ALSO KNOWN AS
         TEMPERATURE IN CENTIGRADE
AFB    - AIR FORCE BASE
         LUKE AFB IS LUKE AIR FORCE BASE
         DAVIS-MONTHAN IS DAVIS-MONTHAN AIR FORCE BASE
NAS    - NAVAL AIR STATION
         EL CENTRO NAS IS EL CENTRO NAVAL AIR STATION
N/A    - NOT AVAILABLE



USA.gov is the U.S. government's official web portal to all federal, state and local government web resources and services.